DateTimeUTC,F1_A11,F1_S11,BsB_S11,BsG_S11,BsR_S11,BbsB_S11,BbsG_S11,BbsR_S11,BaB_A11,BaG_A11,BaR_A11,Tu_S11,T_S11,Uu_S11,U_S11,P_S11,T1_A11
2021-09-05T13:00:00Z,00000200,20000000,,,,,,,-000.17,-000.42,-000.25,18.9,25.4,01.9,01.3,0663.3,31.1
2021-09-05T13:01:00Z,00000200,20000000,,,,,,,0000.15,0000.49,0000.12,18.9,25.4,01.9,01.3,0663.3,31.1
2021-09-05T13:02:00Z,00000200,20000000,,,,,,,-000.41,-000.58,-000.31,18.9,25.4,01.9,01.3,0663.3,31.1
2021-09-05T13:03:00Z,00000200,60000000,,,,,,,0000.55,0000.52,0000.40,18.9,25.4,01.9,01.3,0663.3,31.1
2021-09-05T13:04:00Z,00000200,40000000,0003.64,0002.12,0001.12,0001.24,0000.55,0000.03,0000.54,0000.53,0000.20,19.0,25.3,01.9,01.3,0664.3,31.0
2021-09-05T13:05:00Z,00000200,01000000,0002.55,0002.23,0001.16,0000.56,0000.30,0000.03,0000.45,0000.96,0000.71,19.1,25.2,01.9,01.3,0664.3,31.0
2021-09-05T13:06:00Z,00000200,00000000,0003.06,0002.42,0000.96,0000.22,0000.43,-000.27,0000.66,0000.26,0000.48,19.0,25.2,02.0,01.4,0664.3,31.0
2021-09-05T13:07:00Z,00000200,01000000,0003.26,0002.17,0001.35,0000.13,0000.15,0000.32,0000.70,0000.29,0000.13,19.0,25.2,01.8,01.3,0664.3,31.0
2021-09-05T13:08:00Z,00000200,01000000,0001.90,0002.03,0001.33,0000.51,0000.56,0000.08,0000.31,0000.73,0000.37,19.0,25.2,02.0,01.4,0664.3,31.0
2021-09-05T13:09:00Z,00000200,01000000,0003.73,0002.34,0001.39,0000.15,0000.34,0000.02,0000.69,0000.32,0000.42,19.0,25.2,02.0,01.3,0664.3,31.0
2021-09-05T13:10:00Z,00000200,01000000,0002.49,0002.16,0001.11,0000.40,0000.27,-000.19,0000.68,0000.48,0000.68,19.0,25.2,01.9,01.3,0664.3,31.0
2021-09-05T13:11:00Z,00000200,00000000,0002.35,0002.63,0001.39,0000.83,0000.36,0000.30,0000.67,0000.95,0000.55,19.0,25.1,02.0,01.4,0664.3,31.0
2021-09-05T13:12:00Z,00000200,00000000,0003.31,0001.88,0001.35,0001.07,0000.41,0000.11,0000.66,0000.57,0000.72,19.0,25.1,02.0,01.4,0664.3,31.0
2021-09-05T13:13:00Z,00000200,00000000,0003.78,0002.02,0001.11,0000.18,0000.17,0000.06,0000.69,0000.60,0000.36,19.0,25.2,02.1,01.4,0664.3,31.0
2021-09-05T13:14:00Z,00000200,00000000,0002.61,0002.10,0001.08,-000.10,0000.39,0000.01,0000.80,0000.51,0000.28,19.1,25.2,02.1,01.4,0664.3,31.0
2021-09-05T13:15:00Z,00000200,00000000,0002.94,0001.89,0001.17,0000.46,0000.58,0000.06,0000.27,0000.71,0000.77,19.1,25.2,02.1,01.4,0664.2,31.0
2021-09-05T13:16:00Z,00000200,00000000,0002.74,0002.44,0001.34,0000.79,0000.30,0000.28,0000.51,0000.52,0000.05,19.1,25.2,02.2,01.5,0664.2,31.0
2021-09-05T13:17:00Z,00000200,00000000,0002.90,0002.17,0001.08,0001.19,0000.30,0000.14,0000.83,0000.23,0000.78,19.1,25.2,02.0,01.4,0664.3,31.1
2021-09-05T13:18:00Z,00000200,00000000,0002.81,0001.81,0001.45,0000.79,0000.30,0000.23,0000.70,0000.82,0000.14,19.1,25.2,02.1,01.5,0664.2,31.0
2021-09-05T13:19:00Z,00000200,00000000,0003.28,0002.01,0001.63,-000.25,0000.33,-000.01,0000.54,0000.78,0000.58,19.1,25.2,02.1,01.4,0664.2,31.0
2021-09-05T13:20:00Z,00000200,00000000,0002.69,0001.98,0001.46,-000.20,0000.16,0000.10,0000.72,0000.46,0000.27,19.1,25.2,02.1,01.5,0664.2,31.0
2021-09-05T13:21:00Z,00000200,00000000,0002.85,0002.39,0001.57,0000.47,0000.13,0000.11,0000.24,0000.50,0000.44,19.1,25.2,02.2,01.5,0664.2,31.0
2021-09-05T13:22:00Z,00000200,00000000,0002.45,0002.25,0001.32,0000.26,0000.32,0000.06,0000.82,0000.36,0000.11,19.1,25.2,02.2,01.5,0664.3,31.0
2021-09-05T13:23:00Z,00000200,00000000,0002.76,0002.02,0001.25,0000.57,0000.20,0000.21,0000.52,0000.48,0000.62,19.1,25.2,02.1,01.5,0664.2,31.0
2021-09-05T13:24:00Z,00000200,00000000,0002.60,0002.67,0001.26,0000.52,0000.34,0000.17,0000.58,0000.62,0000.45,19.1,25.2,02.2,01.5,0664.2,31.0
2021-09-05T13:25:00Z,00000200,00000000,0003.46,0002.17,0001.32,0000.41,0000.23,0000.39,0000.48,0000.50,0000.59,19.0,25.2,02.2,01.5,0664.3,31.0
2021-09-05T13:26:00Z,00000200,00000000,0002.60,0002.03,0001.23,0000.09,0000.34,0000.07,0000.74,0000.57,0000.50,19.0,25.2,02.2,01.5,0664.3,31.0
2021-09-05T13:27:00Z,00000200,00000000,0002.79,0002.32,0001.47,0000.99,0000.26,0000.14,0000.69,0000.68,0000.17,19.0,25.1,02.2,01.5,0664.3,31.0
2021-09-05T13:28:00Z,00000200,00000000,0002.61,0002.21,0001.37,0000.87,0000.45,0000.15,0000.50,0000.54,0000.77,19.1,25.2,02.2,01.5,0664.3,31.1
2021-09-05T13:29:00Z,00000200,00000000,0002.68,0001.88,0001.00,0000.56,0000.33,0000.08,0000.70,0000.57,0000.32,19.1,25.2,02.3,01.6,0664.3,31.0
2021-09-05T13:30:00Z,00000200,00000000,0002.30,0002.04,0001.21,0000.26,0000.48,-000.03,0000.66,0000.29,0000.42,19.1,25.2,02.2,01.5,0664.3,31.0
2021-09-05T13:31:00Z,00000200,00000000,0002.83,0002.20,0001.27,0000.51,0000.03,0000.17,0000.34,0000.55,0000.65,19.1,25.2,02.2,01.5,0664.3,31.0
2021-09-05T13:32:00Z,00000200,00000000,0002.72,0001.98,0001.09,0000.32,0000.14,0000.07,0000.99,0000.54,0000.22,19.1,25.2,02.3,01.6,0664.3,31.0
2021-09-05T13:33:00Z,00000200,00000000,0003.26,0001.95,0001.34,0000.68,0000.39,-000.10,0000.42,0000.68,0000.42,19.1,25.2,02.2,01.5,0664.3,31.0
2021-09-05T13:34:00Z,00000200,00000000,0002.47,0002.01,0000.92,0000.06,0000.48,0000.12,0000.51,0000.55,0000.27,19.1,25.2,02.3,01.6,0664.3,31.0
2021-09-05T13:35:00Z,00000200,00000000,0002.73,0002.15,0001.36,0000.04,0000.26,-000.31,0000.74,0000.43,0000.46,19.1,25.2,02.4,01.6,0664.3,31.0
2021-09-05T13:36:00Z,00000200,00000000,0002.50,0002.17,0001.34,0000.97,0000.49,-000.19,0000.82,0001.17,0000.84,19.1,25.2,02.4,01.7,0664.3,31.0
2021-09-05T13:37:00Z,00000200,00000000,0003.49,0002.01,0001.44,0000.14,0000.38,0000.13,0000.26,0000.43,0000.54,19.1,25.2,02.5,01.7,0664.3,31.0
2021-09-05T13:38:00Z,00000200,00000000,0002.72,0001.92,0001.51,0000.25,0000.27,0000.04,0000.96,0000.38,0000.17,19.1,25.2,02.5,01.7,0664.3,31.0
2021-09-05T13:39:00Z,00000200,00000000,0001.88,0002.03,0001.44,-000.10,0000.23,0000.12,0000.51,0000.68,0000.45,19.0,25.1,02.5,01.7,0664.2,31.0
2021-09-05T13:40:00Z,00000200,00000000,0002.49,0001.81,0001.34,0000.72,0000.25,0000.13,0000.79,0000.61,0000.64,19.0,25.1,02.6,01.8,0664.2,31.0
2021-09-05T13:41:00Z,00000200,00000000,0002.81,0002.12,0001.61,0000.07,0000.58,0000.55,0000.54,0000.50,0000.22,19.0,25.1,02.5,01.7,0664.2,31.0
2021-09-05T13:42:00Z,00000200,00000000,0002.44,0001.90,0001.20,0000.30,0000.10,0000.09,0000.44,0000.81,0000.68,19.0,25.1,02.5,01.7,0664.2,31.0
2021-09-05T13:43:00Z,00000200,00000000,0002.75,0002.25,0000.85,0000.13,0000.18,0000.20,0000.71,0000.06,0000.37,19.0,25.1,02.5,01.7,0664.2,31.0
2021-09-05T13:44:00Z,00000200,00000000,0002.78,0002.21,0001.29,0000.60,-000.01,0000.03,0000.46,0000.63,0000.21,19.0,25.1,02.6,01.8,0664.2,31.0
2021-09-05T13:45:00Z,00000200,00000000,0002.73,0002.16,0001.13,0000.47,0000.48,0000.31,0000.60,0000.58,0000.59,19.0,25.1,02.5,01.7,0664.2,31.0
2021-09-05T13:46:00Z,00000200,00000000,0003.03,0002.29,0001.46,0000.03,0000.29,-000.06,0000.53,0000.75,0000.31,19.0,25.1,02.6,01.8,0664.2,31.0
2021-09-05T13:47:00Z,00000200,00000000,0002.73,0002.27,0001.11,-000.08,0000.64,0000.26,0000.54,0000.45,0000.47,19.0,25.1,02.6,01.8,0664.2,31.0
2021-09-05T13:48:00Z,00000200,00000000,0002.81,0002.09,0001.07,0000.18,0000.02,0000.02,0000.72,0000.46,0000.31,19.0,25.1,02.6,01.8,0664.2,31.0
2021-09-05T13:49:00Z,00000200,00000000,0001.97,0001.97,0001.30,0000.02,0000.80,0000.06,0000.39,0000.67,0000.49,19.0,25.1,02.6,01.8,0664.2,31.0
2021-09-05T13:50:00Z,00000200,00000000,0003.26,0001.86,0001.01,-000.10,0000.32,-000.12,0000.60,-000.11,0000.76,19.0,25.1,02.7,01.8,0664.1,31.0
2021-09-05T13:51:00Z,00000200,00000000,0002.84,0002.12,0001.36,0000.03,0000.25,0000.09,0000.43,0000.93,0000.27,19.0,25.1,02.7,01.8,0664.1,31.0
2021-09-05T13:52:00Z,00000200,00000000,0002.25,0001.52,0001.37,-000.02,0000.26,0000.19,0000.76,0000.62,0000.23,19.0,25.1,02.7,01.9,0664.1,31.0
2021-09-05T13:53:00Z,00000200,00000000,0003.20,0002.07,0001.67,0000.74,0000.18,0000.64,0000.64,0000.42,0000.74,18.9,25.1,02.6,01.8,0664.1,31.0
2021-09-05T13:54:00Z,00000200,00000000,0002.63,0002.03,0001.03,0000.19,0000.29,-000.08,0000.45,0000.57,0000.43,18.9,25.1,02.7,01.9,0664.1,31.0
2021-09-05T13:55:00Z,00000200,00000000,0003.05,0002.68,0001.25,0000.41,0000.63,0000.11,0000.62,0000.69,0000.34,18.9,25.1,02.7,01.9,0664.1,31.0
2021-09-05T13:56:00Z,00000200,00000000,0003.65,0002.20,0001.07,-000.01,0000.20,-000.04,0000.87,0000.55,0000.47,18.9,25.1,02.7,01.8,0664.1,31.0
2021-09-05T13:57:00Z,00000200,40000000,,,,,,,0000.00,0000.36,0000.01,18.9,25.1,03.1,02.1,0664.1,31.0
2021-09-05T13:58:00Z,00000200,60000000,,,,,,,0000.10,-000.26,-000.17,18.7,25.2,02.6,01.7,0663.1,31.0
2021-09-05T13:59:00Z,00000200,20000000,,,,,,,-000.20,-000.11,0000.16,18.8,25.3,02.5,01.7,0663.1,31.1
